Flag for Poland Weather past 2 weeks in Legnica, Poland

Now
71 °F

Passing clouds.


Feels Like: 74 °F
Forecast: 63 / 93 °F
Wind: 5 mph from West

Location: Wroclaw Ii

Current Time: Aug 5, 2015 at 5:30:38 AM

Latest Report: Aug 5, 2015 at 4:00 AM


Visibility: 19 mi

Pressure: 29.99 "Hg

Humidity: 72%

Dew point: 62 °F

Location of LegnicaLocation

Historic Weather in Legnica — Graph

°F

Legnica temperature yesterday

Maximum temperature yesterday: 91 °F (at 3:00 PM)
Minimum temperature yesterday: 59 °F (at 4:00 AM)
Average temperature yesterday: 77 °F

Past Weeks' High & Low Weather Summary

 TemperatureHumidityPressure
High92 °F (Jul 22, 4:00 PM)92% (Jul 22, 6:00 AM)30.14 "Hg (Jul 22, 6:00 AM)
Low45 °F (Aug 1, 4:00 AM)26% (Aug 1, 4:00 PM)29.61 "Hg (Jul 27, 4:00 PM)
Average70 °F60%29.91 "Hg
* Reported Jul 21 4:00 AM — Aug 5 4:00 AM, Legnica, Weather by CustomWeather, © 2015

Note: Actual official high and low records may vary slightly from our data, if they occured in-between our weather recording intervals... More about our weather records

Advertising

Legnica weather history for previous 24 hours

 ConditionsComfort  
Time TempWeatherWind HumidityBarometerVisibility
4:00 AM
Wed, Aug 5
71 °FPassing clouds.5 mph72%29.99 "Hg19 mi
3:00 AM73 °FOvercast.5 mph65%29.98 "Hg19 mi
2:00 AM72 °FOvercast.3 mph71%29.96 "Hg19 mi
1:00 AM71 °FPassing clouds.3 mph73%29.93 "Hg19 mi
12:00 AM72 °FPassing clouds.3 mph68%29.92 "Hg19 mi
11:00 PM
Tue, Aug 4
72 °FPassing clouds.3 mph67%29.90 "Hg19 mi
10:00 PM76 °FPassing clouds.1 mph58%29.90 "Hg19 mi
9:00 PM79 °FPassing clouds.1 mph54%29.89 "Hg19 mi
8:00 PM83 °FScattered clouds.3 mph49%29.88 "Hg19 mi
7:00 PM87 °FScattered clouds.3 mph45%29.89 "Hg19 mi
6:00 PM90 °FScattered clouds.6 mph37%29.88 "Hg19 mi
5:00 PM90 °FPartly sunny.5 mph37%29.89 "Hg19 mi
4:00 PM90 °FScattered clouds.7 mph38%29.90 "Hg19 mi
3:00 PM91 °FScattered clouds.8 mph36%29.91 "Hg19 mi
2:00 PM89 °FPassing clouds.6 mph37%29.93 "Hg19 mi
1:00 PM88 °FPassing clouds.5 mph38%29.96 "Hg19 mi
12:00 PM86 °FPassing clouds.5 mph40%29.98 "Hg19 mi
11:00 AM84 °FSunny.5 mph46%30.00 "Hg19 mi
10:00 AM81 °FSunny.5 mph52%30.01 "Hg19 mi
9:00 AMN/APassing clouds.24 mphN/AN/A16 mi
8:00 AM70 °FPassing clouds.3 mph67%30.03 "Hg12 mi
7:00 AM65 °FPassing clouds.3 mph84%30.04 "Hg12 mi
6:00 AM59 °FPassing clouds.2 mph89%30.04 "Hg12 mi
5:00 AM61 °FPassing clouds.No wind84%30.03 "Hg19 mi
Weather by CustomWeather, © 2015

See weather overviewHow to use our weather pages